Home > Time Zones > World Clock > Weather > Norway > Gran > Past weeks

Flag for Norway Weather past 2 weeks in Gran, Norway

Now
79 °F

Scattered clouds.


Feels Like: 80 °F
Forecast: 59 / 74 °F
Wind: 3 mph from South

Location: Oslo Gardermoen Airport

Current Time: Jul 4, 2015 at 4:09:55 PM

Latest Report: Jul 4, 2015 at 3:20 PM


Visibility: N/A

Pressure: 30.09 "Hg

Humidity: 51%

Dew point: 59 °F

Location of GranLocation

Historic Weather in Gran — Graph

°F

Gran temperature yesterday

Maximum temperature yesterday: 77 °F (at 2:50 PM)
Minimum temperature yesterday: 55 °F (at 3:50 AM)
Average temperature yesterday: 67 °F

Past Weeks' High & Low Weather Summary

 TemperatureHumidityPressure
High79 °F (Jul 1, 3:20 PM)100% (Jun 22, 1:20 AM)30.33 "Hg (Jun 22, 1:20 AM)
Low46 °F (Jun 22, 2:50 AM)29% (Jun 20, 4:50 PM)29.65 "Hg (Jun 23, 2:20 PM)
Average60 °F65%29.94 "Hg
* Reported Jun 19 2:20 PM — Jul 4 2:50 PM, Gran, Weather by CustomWeather, © 2015

Note: Actual official high and low records may vary slightly from our data, if they occured in-between our weather recording intervals... More about our weather records

Advertising

Gran weather history for previous 24 hours

 ConditionsComfort  
Time TempWeatherWind HumidityBarometerVisibility
2:50 PM
Sat, Jul 4
77 °FScattered clouds.5 mph54%30.12 "HgN/A
2:20 PM77 °FScattered clouds.3 mph51%30.12 "HgN/A
1:50 PM77 °FScattered clouds.3 mph51%30.12 "HgN/A
1:20 PM75 °FScattered clouds.5 mph54%30.12 "HgN/A
12:50 PM73 °FBroken clouds.2 mph57%30.15 "HgN/A
12:20 PM75 °FBroken clouds.2 mph61%30.15 "HgN/A
11:50 AM73 °FBroken clouds.3 mph57%30.15 "HgN/A
11:20 AM72 °FPartly sunny.5 mph61%30.18 "HgN/A
10:50 AM72 °FPartly sunny.6 mph61%30.15 "HgN/A
10:20 AM73 °FPassing clouds.7 mph57%30.15 "HgN/A
9:50 AM72 °FPassing clouds.9 mph61%30.15 "HgN/A
9:20 AM70 °FPassing clouds.10 mph60%30.15 "HgN/A
8:50 AM66 °FPassing clouds.9 mph83%30.18 "HgN/A
8:20 AM64 °FPassing clouds.2 mph83%30.18 "HgN/A
7:50 AM61 °FFog.2 mph100%30.18 "Hg5 mi
7:20 AM61 °FCool.2 mph94%30.18 "Hg1 mi
6:50 AM59 °FSleet. Cloudy.2 mph100%30.18 "Hg1 mi
6:20 AM59 °FCool.2 mph100%30.18 "Hg1 mi
5:50 AM59 °FSleet. Fog.3 mph94%30.18 "Hg2 mi
5:20 AM57 °FScattered clouds.3 mph94%30.18 "Hg2 mi
4:50 AM59 °FSnow. Fog.1 mph88%30.18 "Hg3 mi
4:20 AM59 °FPassing clouds.No wind94%30.18 "Hg4 mi
3:50 AM59 °FClear.1 mph94%30.18 "Hg4 mi
3:20 AM59 °FClear.No wind94%30.18 "Hg4 mi
2:50 AM59 °FClear.No wind94%30.15 "Hg5 mi
2:20 AM59 °FPassing clouds.3 mph94%30.18 "HgN/A
1:50 AM61 °FClear.5 mph88%30.15 "Hg10 mi
1:20 AM61 °FClear.8 mph94%30.18 "Hg10 mi
12:50 AM63 °FClear.7 mph83%30.18 "Hg10 mi
12:20 AM63 °FClear.9 mph83%30.18 "Hg10 mi
11:50 PM
Fri, Jul 3
64 °FClear.9 mph78%30.18 "Hg10 mi
11:20 PM64 °FPassing clouds.7 mph78%30.18 "HgN/A
10:50 PM66 °FSunny.9 mph73%30.18 "Hg10 mi
10:20 PM68 °FSunny.9 mph69%30.15 "Hg10 mi
9:50 PM70 °FPassing clouds.6 mph64%30.15 "HgN/A
9:20 PM72 °FSunny.9 mph61%30.15 "Hg10 mi
8:50 PM72 °FSunny.9 mph65%30.15 "Hg10 mi
8:20 PM73 °FSunny.12 mph61%30.15 "Hg10 mi
7:50 PM73 °FSunny.12 mph61%30.15 "Hg10 mi
7:20 PM73 °FPassing clouds.9 mph61%30.18 "HgN/A
6:50 PM75 °FPassing clouds.12 mph57%30.18 "HgN/A
6:20 PM75 °FPassing clouds.10 mph57%30.18 "HgN/A
5:50 PM77 °FPassing clouds.14 mph51%30.18 "HgN/A
5:20 PM77 °FPassing clouds.15 mph51%30.18 "HgN/A
4:50 PM77 °FPassing clouds.15 mph51%30.18 "HgN/A
4:20 PM77 °FSunny.15 mph51%30.18 "Hg10 mi
Weather by CustomWeather, © 2015

See weather overviewHow to use our weather pages